• In Hungary
  • List of Countries
  • For 7 days
  • Water Temperature
  • Satellite Maps
  • Weather Map
  • News
  • Weather Widgets
  • user-avatar
    Login

    Hourly Weather Dunedin

    Today, 22 November, Wednesday

    Time Temperature Precipitation Wind Pressure Humidity
    00:00 +11°C° 0 mm 1 mps 756 mmHg 98%
    01:00 +11°C° 0 mm 1 mps 756 mmHg 97%
    02:00 +11°C° 0 mm 1 mps 756 mmHg 96%
    03:00 +11°C° 0 mm 1 mps 756 mmHg 95%
    04:00 +12°C° 0 mm 1 mps 756 mmHg 93%
    05:00 +13°C° 0 mm 1 mps 756 mmHg 90%
    06:00 +15°C° 0 mm 2 mps 756 mmHg 81%
    07:00 +17°C° 0 mm 2 mps 756 mmHg 73%
    08:00 +19°C° 0 mm 2 mps 756 mmHg 64%
    09:00 +21°C° 0 mm 2 mps 756 mmHg 62%
    10:00 +23°C° 0 mm 2 mps 756 mmHg 59%
    11:00 +23°C° 0 mm 2 mps 756 mmHg 56%
    12:00 +24°C° 0 mm 3 mps 756 mmHg 56%
    13:00 +25°C° 0 mm 3 mps 756 mmHg 56%
    14:00 +25°C° 0 mm 3 mps 756 mmHg 56%
    15:00 +24°C° 0 mm 3 mps 756 mmHg 62%
    16:00 +23°C° 0 mm 2 mps 756 mmHg 67%
    17:00 +20°C° 0 mm 2 mps 756 mmHg 73%
    18:00 +18°C° 0 mm 2 mps 757 mmHg 81%
    19:00 +16°C° 0 mm 1 mps 757 mmHg 88%
    20:00 +14°C° 0 mm 1 mps 757 mmHg 96%
    21:00 +14°C° 0 mm 1 mps 758 mmHg 96%
    22:00 +14°C° 0 mm 1 mps 758 mmHg 96%
    23:00 +13°C° 0 mm 1 mps 758 mmHg 96%

    Tomorrow, 23 November, Thursday

    Time Temperature Precipitation Wind Pressure Humidity
    00:00 +13°C° 0 mm 1 mps 758 mmHg 96%
    01:00 +13°C° 0 mm 1 mps 758 mmHg 96%
    02:00 +13°C° 0 mm 1 mps 758 mmHg 95%
    03:00 +14°C° 0 mm 1 mps 758 mmHg 94%
    04:00 +14°C° 0 mm 1 mps 758 mmHg 92%
    05:00 +15°C° 0 mm 1 mps 758 mmHg 91%
    06:00 +18°C° 0 mm 1 mps 758 mmHg 82%
    07:00 +20°C° 0 mm 1 mps 759 mmHg 74%
    08:00 +23°C° 0 mm 1 mps 759 mmHg 65%
    09:00 +23°C° 0 mm 1 mps 759 mmHg 64%
    10:00 +24°C° 0 mm 2 mps 759 mmHg 63%
    11:00 +25°C° 0 mm 2 mps 758 mmHg 62%
    12:00 +25°C° 0 mm 3 mps 758 mmHg 63%
    13:00 +25°C° 0 mm 3 mps 758 mmHg 64%
    14:00 +24°C° 0 mm 3 mps 758 mmHg 66%
    15:00 +22°C° 0 mm 3 mps 758 mmHg 69%
    16:00 +21°C° 0 mm 3 mps 758 mmHg 72%
    17:00 +20°C° 0 mm 3 mps 758 mmHg 76%
    18:00 +18°C° 0 mm 3 mps 758 mmHg 82%
    19:00 +16°C° 0 mm 3 mps 758 mmHg 89%
    20:00 +14°C° 0 mm 3 mps 758 mmHg 95%
    21:00 +13°C° 0 mm 3 mps 758 mmHg 96%
    22:00 +13°C° 0 mm 3 mps 758 mmHg 97%
    23:00 +13°C° 0 mm 3 mps 758 mmHg 98%

    Day after tomorrow, 24 November, Friday

    Time Temperature Precipitation Wind Pressure Humidity
    00:00 +13°C° 0 mm 3 mps 758 mmHg 98%
    01:00 +13°C° 0 mm 3 mps 758 mmHg 98%
    02:00 +14°C° 0 mm 2 mps 757 mmHg 98%
    03:00 +14°C° 0 mm 2 mps 757 mmHg 97%
    04:00 +15°C° 0 mm 2 mps 757 mmHg 96%
    05:00 +15°C° 0 mm 2 mps 758 mmHg 95%
    06:00 +16°C° 0 mm 2 mps 758 mmHg 91%
    07:00 +17°C° 0 mm 3 mps 758 mmHg 86%
    08:00 +18°C° 0 mm 3 mps 758 mmHg 82%
    09:00 +18°C° 0 mm 3 mps 758 mmHg 78%
    10:00 +19°C° 0 mm 3 mps 758 mmHg 73%
    11:00 +20°C° 0 mm 3 mps 757 mmHg 69%
    12:00 +20°C° 0 mm 4 mps 757 mmHg 68%
    13:00 +20°C° 0 mm 4 mps 757 mmHg 68%
    14:00 +20°C° 0 mm 4 mps 757 mmHg 68%
    15:00 +19°C° 0 mm 3 mps 757 mmHg 71%
    16:00 +18°C° 0 mm 3 mps 757 mmHg 75%
    17:00 +17°C° 0 mm 2 mps 757 mmHg 78%
    18:00 +16°C° 0 mm 2 mps 758 mmHg 84%
    19:00 +14°C° 0 mm 2 mps 758 mmHg 89%
    20:00 +13°C° 0 mm 2 mps 759 mmHg 94%
    21:00 +13°C° 0 mm 2 mps 759 mmHg 94%
    22:00 +13°C° 0 mm 2 mps 759 mmHg 93%
    23:00 +13°C° 0 mm 2 mps 759 mmHg 92%

    25 November, Saturday

    Time Temperature Precipitation Wind Pressure Humidity
    00:00 +12°C° 0 mm 2 mps 759 mmHg 92%
    01:00 +12°C° 0 mm 2 mps 759 mmHg 91%
    02:00 +12°C° 0 mm 2 mps 759 mmHg 91%
    03:00 +13°C° 0 mm 2 mps 759 mmHg 89%
    04:00 +13°C° 0 mm 2 mps 759 mmHg 87%
    05:00 +14°C° 0 mm 1 mps 759 mmHg 85%
    06:00 +16°C° 0 mm 2 mps 759 mmHg 77%
    07:00 +18°C° 0 mm 2 mps 759 mmHg 69%
    08:00 +20°C° 0 mm 2 mps 760 mmHg 61%
    09:00 +21°C° 0 mm 3 mps 760 mmHg 61%
    10:00 +21°C° 0 mm 4 mps 759 mmHg 61%
    11:00 +21°C° 0 mm 4 mps 759 mmHg 62%
    12:00 +22°C° 0.1 mm 5 mps 759 mmHg 62%
    13:00 +22°C° 0.1 mm 5 mps 759 mmHg 63%
    14:00 +22°C° 0.1 mm 5 mps 758 mmHg 64%
    15:00 +21°C° 0.1 mm 5 mps 758 mmHg 66%
    16:00 +20°C° 0.1 mm 5 mps 758 mmHg 68%
    17:00 +20°C° 0.1 mm 5 mps 758 mmHg 70%
    18:00 +17°C° 0 mm 5 mps 759 mmHg 76%
    19:00 +15°C° 0 mm 4 mps 759 mmHg 83%
    20:00 +13°C° 0 mm 4 mps 759 mmHg 89%
    21:00 +12°C° 0 mm 4 mps 759 mmHg 91%
    22:00 +12°C° 0 mm 4 mps 759 mmHg 92%
    23:00 +11°C° 0 mm 4 mps 759 mmHg 93%

    26 November, Sunday

    Time Temperature Precipitation Wind Pressure Humidity
    00:00 +11°C° 0 mm 4 mps 759 mmHg 94%
    01:00 +11°C° 0 mm 4 mps 758 mmHg 95%
    02:00 +11°C° 0 mm 4 mps 758 mmHg 95%
    03:00 +12°C° 0 mm 4 mps 758 mmHg 93%
    04:00 +12°C° 0 mm 4 mps 758 mmHg 92%
    05:00 +13°C° 0 mm 4 mps 758 mmHg 90%
    06:00 +15°C° 0 mm 4 mps 758 mmHg 83%
    07:00 +19°C° 0 mm 4 mps 758 mmHg 76%
    08:00 +21°C° 0 mm 4 mps 759 mmHg 68%
    09:00 +21°C° 0.2 mm 4 mps 758 mmHg 71%
    10:00 +21°C° 0.2 mm 4 mps 758 mmHg 74%
    11:00 +21°C° 0.2 mm 4 mps 758 mmHg 76%
    12:00 +21°C° 0.4 mm 4 mps 757 mmHg 78%
    13:00 +21°C° 0.4 mm 4 mps 757 mmHg 80%
    14:00 +20°C° 0.4 mm 4 mps 757 mmHg 82%
    15:00 +20°C° 0.3 mm 4 mps 757 mmHg 83%
    16:00 +19°C° 0.3 mm 3 mps 757 mmHg 84%
    17:00 +19°C° 0.3 mm 3 mps 757 mmHg 85%
    18:00 +18°C° 0.1 mm 3 mps 758 mmHg 89%
    19:00 +16°C° 0.1 mm 2 mps 758 mmHg 93%
    20:00 +15°C° 0.1 mm 2 mps 758 mmHg 97%
    21:00 +15°C° 0 mm 2 mps 758 mmHg 97%
    22:00 +14°C° 0 mm 2 mps 758 mmHg 97%
    23:00 +14°C° 0 mm 1 mps 758 mmHg 97%

    27 November, Monday

    Time Temperature Precipitation Wind Pressure Humidity
    00:00 +13°C° 0 mm 1 mps 758 mmHg 96%
    01:00 +13°C° 0 mm 1 mps 758 mmHg 96%
    02:00 +13°C° 0 mm 1 mps 758 mmHg 96%
    03:00 +14°C° 0 mm 1 mps 758 mmHg 94%
    04:00 +14°C° 0 mm 1 mps 758 mmHg 93%
    05:00 +15°C° 0 mm 1 mps 758 mmHg 92%
    06:00 +18°C° 0 mm 1 mps 759 mmHg 83%
    07:00 +20°C° 0 mm 1 mps 759 mmHg 74%
    08:00 +22°C° 0 mm 1 mps 759 mmHg 65%
    09:00 +23°C° 0 mm 2 mps 759 mmHg 62%
    10:00 +24°C° 0 mm 2 mps 759 mmHg 60%
    11:00 +25°C° 0 mm 3 mps 759 mmHg 57%
    12:00 +25°C° 0.1 mm 3 mps 759 mmHg 58%
    13:00 +25°C° 0.1 mm 4 mps 758 mmHg 59%
    14:00 +25°C° 0.1 mm 4 mps 758 mmHg 59%
    15:00 +23°C° 0.1 mm 4 mps 758 mmHg 63%
    16:00 +22°C° 0.1 mm 4 mps 758 mmHg 66%
    17:00 +21°C° 0.1 mm 4 mps 758 mmHg 69%
    18:00 +19°C° 0 mm 4 mps 759 mmHg 77%
    19:00 +17°C° 0 mm 3 mps 759 mmHg 84%
    20:00 +14°C° 0 mm 3 mps 760 mmHg 92%
    21:00 +13°C° 0 mm 3 mps 760 mmHg 93%
    22:00 +14°C° 0 mm 2 mps 760 mmHg 93%
    23:00 +14°C° 0 mm 2 mps 760 mmHg 94%
    Show more